TimeMST,TemperatureF,Dew PointF,Humidity,Sea Level PressureIn,VisibilityMPH,Wind Direction,Wind SpeedMPH,Gust SpeedMPH,PrecipitationIn,Events,Conditions,WindDirDegrees,DateUTC
1:50 AM,74,70,85,29.87,2,SE,2.2,,,,,140,2013-11-14 08:50:00
4:50 AM,72,70,91,29.86,2,SE,2.2,,,,,140,2013-11-14 11:50:00
5:42 AM,68.0,66.2,94,29.89,8.0,South,4.6,-,N/A,,Partly Cloudy,170,2013-11-14 12:42:00
6:07 AM,68.0,66.2,94,29.89,0.0,Calm,Calm,-,N/A,Fog,Fog,0,2013-11-14 13:07:00
7:40 AM,69.8,68.0,94,30.05,5.0,SSE,4.6,-,N/A,,Partly Cloudy,160,2013-11-14 14:40:00
7:50 AM,73,71,90,29.92,12,SE,2.2,,,,Partly Cloudy,140,2013-11-14 14:50:00
8:40 AM,73.4,69.8,88,29.96,7.0,SSW,4.6,-,N/A,,Scattered Clouds,200,2013-11-14 15:40:00
9:40 AM,78.8,71.6,78,29.98,8.0,SSW,4.6,-,N/A,,Mostly Cloudy,200,2013-11-14 16:40:00
10:47 AM,80.6,69.8,70,30.09,10.0,North,9.2,-,N/A,,Mostly Cloudy,350,2013-11-14 17:47:00
10:50 AM,85,73,60,29.95,19,West,4.5,,,,Scattered Clouds,270,2013-11-14 17:50:00
11:41 AM,82.4,69.8,66,29.94,10.0,NNW,4.6,-,N/A,,Scattered Clouds,330,2013-11-14 18:41:00
12:40 PM,84.2,68.0,58,29.91,10.0,North,9.2,-,N/A,,Mostly Cloudy,360,2013-11-14 19:40:00
1:43 PM,84.2,68.0,58,30.06,10.0,North,10.4,-,N/A,,Mostly Cloudy,360,2013-11-14 20:43:00
1:50 PM,88,72,51,29.87,19,NW,8.9,,,,Scattered Clouds,320,2013-11-14 20:50:00
2:43 PM,84.2,69.8,62,29.87,10.0,North,11.5,-,N/A,,Mostly Cloudy,360,2013-11-14 21:43:00
3:48 PM,82.4,69.8,66,29.86,10.0,NNW,9.2,-,N/A,,Scattered Clouds,330,2013-11-14 22:48:00
4:40 PM,85,67,46,29.91,19,East,4.5,,,,Scattered Clouds,80,2013-11-14 23:40:00
4:41 PM,82.4,69.8,66,29.96,10.0,NNW,9.2,-,N/A,,Scattered Clouds,340,2013-11-14 23:41:00
5:48 PM,78.8,69.8,74,29.87,10.0,NW,6.9,-,N/A,,Scattered Clouds,310,2013-11-15 00:48:00
6:41 PM,78.8,69.8,74,29.90,10.0,WNW,5.8,-,N/A,,Scattered Clouds,300,2013-11-15 01:41:00
7:40 PM,80,73,74,29.94,2,West,4.5,,,,,270,2013-11-15 02:40:00
7:47 PM,77.0,69.8,78,30.01,10.0,NNW,5.8,-,N/A,,Clear,330,2013-11-15 02:47:00
8:44 PM,75.2,69.8,83,29.92,10.0,Calm,Calm,-,N/A,,Clear,0,2013-11-15 03:44:00
9:46 PM,73.4,68.0,83,29.93,10.0,SW,5.8,-,N/A,,Clear,230,2013-11-15 04:46:00
10:41 PM,73.4,66.2,78,30.03,10.0,South,5.8,-,N/A,,Clear,190,2013-11-15 05:41:00
10:50 PM,76,71,80,29.91,2,South,2.2,,,,,180,2013-11-15 05:50:00